Weather History for Beverly, MA

Change the Weather History Date:

Wednesday, October 2, 2013

  Actual Average Record
Temperature  
Mean Temperature 67 °F -  
Max Temperature 80 °F 64 °F 84 °F (2002)
Min Temperature 54 °F 43 °F 37 °F (2009)
Cooling Degree Days 2    
Growing Degree Days 17 (Base 50)    
Moisture  
Dew Point 55 °F    
Average Humidity 68    
Maximum Humidity 93    
Minimum Humidity 45    
Precipitation  
Precipitation 0.00 in - - ()
Sea Level Pressure  
Sea Level Pressure 29.85 in    
Wind  
Wind Speed 4 mph (West)    
Max Wind Speed 15 mph    
Max Gust Speed 21 mph    
Visibility 10 miles    
Events      
Averages and records for this station are not official NWS values.
T = Trace of Precipitation, MM = Missing Value Source: NWS Daily Summary

Daily Weather History Graph

Daily Weather History Graph

Search for Another Location

Airport:

Trip Planner

Search our weather history database for the weather conditions in past years. The results will help you decide how hot, cold, wet, or windy it might be!

Date:

Astronomy

Oct. 02, 2013 Rise Set
Actual Time 6:42 AM EDT 6:22 PM EDT
Civil Twilight 6:14 AM EDT 6:51 PM EDT
Nautical Twilight 5:41 AM EDT 7:23 PM EDT
Astronomical Twilight 5:08 AM EDT 7:56 PM EDT
Moon 4:09 AM EDT (10/2) 4:59 PM EDT (10/2)
Length of Visible Light 12h 36m
Length of Day
11h 40m
Waning Crescent, 6% of the Moon is Illuminated
Oct 2
Waning Crescent
Oct 4
New
Oct 11
First Quarter
Oct 18
Full
Oct 26
Last Quarter

Hourly Weather History & Observations

Time (EDT) Temp. Heat Index Dew Point Humidity Pressure Visibility Wind Dir Wind Speed Gust Speed Precip Events Conditions
12:53 AM 55.9 °F - 52.0 °F 87% 29.86 in 10.0 mi Calm Calm - N/A   Clear
1:53 AM 57.0 °F - 53.1 °F 87% 29.86 in 10.0 mi Calm Calm - N/A   Clear
2:53 AM 59.0 °F - 54.0 °F 83% 29.85 in 10.0 mi West 3.5 mph - N/A   Clear
3:53 AM 57.0 °F - 53.1 °F 87% 29.85 in 10.0 mi Calm Calm - N/A   Clear
4:53 AM 55.9 °F - 52.0 °F 87% 29.85 in 10.0 mi Calm Calm - N/A   Clear
5:53 AM 55.0 °F - 52.0 °F 89% 29.86 in 10.0 mi Calm Calm - N/A   Clear
6:53 AM 54.0 °F - 52.0 °F 93% 29.86 in 10.0 mi West 3.5 mph - N/A   Partly Cloudy
7:53 AM 57.9 °F - 53.1 °F 84% 29.87 in 10.0 mi West 3.5 mph - N/A   Scattered Clouds
8:53 AM 64.9 °F - 55.0 °F 70% 29.87 in 10.0 mi WSW 8.1 mph - N/A   Scattered Clouds
9:53 AM 70.0 °F - 55.9 °F 61% 29.87 in 10.0 mi West 10.4 mph - N/A   Partly Cloudy
10:53 AM 73.0 °F - 57.0 °F 57% 29.85 in 10.0 mi WSW 10.4 mph - N/A   Clear
11:53 AM 75.0 °F - 57.0 °F 53% 29.82 in 10.0 mi West 10.4 mph 17.3 mph N/A   Clear
12:53 PM 78.1 °F - 57.0 °F 48% 29.82 in 10.0 mi WNW 15.0 mph 20.7 mph N/A   Clear
1:53 PM 80.1 °F 80.6 °F 57.9 °F 47% 29.81 in 10.0 mi WNW 12.7 mph - N/A   Clear
2:53 PM 80.1 °F 80.4 °F 57.0 °F 45% 29.80 in 10.0 mi WNW 10.4 mph - N/A   Clear
3:53 PM 80.1 °F 80.4 °F 57.0 °F 45% 29.80 in 10.0 mi WNW 9.2 mph - N/A   Partly Cloudy
4:53 PM 78.1 °F - 57.0 °F 48% 29.80 in 10.0 mi WNW 8.1 mph - N/A   Clear
5:53 PM 75.9 °F - 55.0 °F 48% 29.81 in 10.0 mi West 8.1 mph - N/A   Clear
6:53 PM 72.0 °F - 55.9 °F 57% 29.84 in 10.0 mi West 5.8 mph - N/A   Clear
7:53 PM 69.1 °F - 57.0 °F 65% 29.86 in 10.0 mi WSW 6.9 mph - N/A   Clear
8:53 PM 68.0 °F - 57.0 °F 68% 29.87 in 10.0 mi West 6.9 mph - N/A   Clear
9:53 PM 66.9 °F - 57.0 °F 70% 29.88 in 10.0 mi West 8.1 mph - N/A   Clear
10:53 PM 66.0 °F - 55.9 °F 70% 29.91 in 10.0 mi West 5.8 mph - N/A   Clear
11:53 PM 64.0 °F - 55.9 °F 75% 29.92 in 10.0 mi West 4.6 mph - N/A   Clear